Simultaneous Nadir Overpasses (SNOs) Predictions

Prediction of SNOs between GOES-16 and AQUA Satellite Orbit:

Table of predicted SNOs for the next 14.0 days since TLE Epoch: 11/25/2023
Index Date Time (GOES-16) GOES-16 Lat,Lon AQUA Lat,Lon Distance(km) Time Diff (sec)
1 11/25/2023 18:45:57 -0.01, -75.23 0.69, -71.90 378.33 80
2 11/26/2023 07:06:28 0.00, -75.23 0.36, -76.87 186.15 80
3 11/28/2023 06:48:44 0.01, -75.28 -0.43, -73.19 238.13 80
4 11/28/2023 19:09:24 -0.00, -75.30 -0.60, -78.20 328.41 80
5 11/30/2023 18:56:59 -0.01, -75.36 0.21, -74.52 97.20 80
6 12/01/2023 07:17:28 0.00, -75.37 0.87, -79.48 466.27 80
7 12/03/2023 07:02:22 0.01, -75.44 0.06, -75.79 39.48 80
8 12/05/2023 06:44:35 0.00, -75.52 -0.70, -72.09 388.71 80
9 12/05/2023 19:05:13 -0.00, -75.54 -0.33, -77.10 176.98 80
10 12/07/2023 18:52:45 -0.00, -75.62 0.50, -73.41 252.67 80
11 12/08/2023 07:13:14 0.00, -75.64 0.60, -78.36 309.48 80
